[[{"header":{"parameterUnit":"m.s-1","parameterCategory":1,"la1":30.2991,"la2":30.254,"lo1":-89.0895,"lo2":-89.0444,"dy":0.0017,"dx":0.0017,"nx":28,"ny":28,"refTime":"2025-08-31T09:00:00:Z","depth":0,"parameterNumber":2,"parameterNumberName":"U-component_of_WINDS"},"data":[0,0,0,0,0,0,0,0,0,0,0,0,0,0,0,0,0,0,0,0,0,0,0,0,0,0,0,0,0,0,0,0,0,0,0,0,0,0,0,0,0,0,0,0,0,0,0,0,0,0,0,0,0,0,0,0,0,0,-4.184,-4.184,0,-4.1847,-4.1847,-4.1847,-4.1769,-4.1767,-4.1765,-4.1763,-4.1769,-4.1771,-4.1774,0,0,0,0,0,0,0,0,0,0,0,0,0,-4.1758,-4.176,-4.184,-4.184,-4.184,-4.1847,-4.1847,-4.1848,-4.1769,-4.1767,-4.1764,-4.1762,-4.1769,-4.1771,-4.1774,0,0,0,0,0,0,0,0,0,0,0,0,0,-4.1782,-4.176,-4.184,-4.1802,-4.1799,-4.1847,-4.1847,-4.1848,-4.177,-4.1767,-4.1763,-4.176,-4.1768,-4.1771,-4.1774,-4.1859,0,0,-4.1784,-4.1786,0,0,0,0,0,0,0,0,-4.1781,-4.1785,-4.1807,-4.1805,-4.1801,-4.1804,-4.1821,-4.1851,-4.1771,-4.1781,-4.1762,-4.1759,-4.1783,-4.1785,-4.1794,-4.186,-4.186,-4.1784,-4.1786,-4.1788,-4.1789,0,0,0,0,0,0,0,-4.1779,-4.1784,-4.1843,-4.1808,-4.1804,-4.1784,-4.1784,-4.1826,-4.18,-4.178,-4.1774,-4.1776,-4.1781,-4.1791,-4.1793,-4.186,-4.1784,-4.1787,-4.1789,-4.1791,-4.1998,-4.2002,0,0,0,0,0,0,-4.1783,-4.1784,-4.1842,-4.1843,-4.1783,-4.1789,-4.1788,-4.1806,-4.1799,-4.1795,-4.1779,-4.1772,-4.1787,-4.1789,-4.1793,-4.1894,-4.1788,-4.1791,-4.1793,-4.1995,-4.1999,-4.2003,0,0,0,0,0,0,-4.1781,-4.1789,-4.1842,-4.1812,-4.1817,-4.1793,-4.1814,-4.1808,-4.1818,-4.1799,-4.1794,-4.1793,-4.1784,-4.1788,-4.1844,-4.1893,-4.1792,-4.1795,-4.1991,-4.1996,-4.2001,-4.2096,0,0,0,0,0,0,-4.1779,-4.1789,-4.1821,-4.1813,-4.1819,-4.1893,-4.1817,-4.1811,-4.1824,-4.1815,-4.1811,-4.1807,-4.1782,-4.184,-4.1847,-4.1896,-4.1798,-4.1986,-4.1993,-4.1999,-4.2088,-4.2104,-4.2117,0,0,0,0,0,-4.1777,-4.1846,-4.1823,-4.183,-4.1859,-4.1896,-4.1899,-4.1869,-4.1828,-4.186,-4.1848,-4.1808,-4.1886,-4.1846,-4.1854,-4.1904,-4.1983,-4.1991,-4.1999,-4.2082,-4.2101,-4.2117,0,0,0,0,0,0,-4.1859,-4.1845,-4.1818,-4.1888,-4.1894,-4.1883,-4.1922,-4.189,-4.1907,-4.1899,-4.186,-4.186,-4.1922,-4.1918,-4.1873,-4.1987,-4.1927,-4.1937,-4.1988,-4.2006,-4.202,-4.202,-4.1801,0,0,0,0,0,-4.1886,-4.1918,-4.1903,-4.1966,-4.197,-4.1946,-4.1961,-4.1937,-4.1942,-4.1944,-4.1936,-4.1942,-4.1969,-4.1986,-4.2009,-4.2087,-4.2086,-4.2126,-4.214,-4.2152,-4.2162,-4.2205,-4.2223,-4.2029,-4.2029,-4.2029,0,0,-4.1941,-4.1936,-4.1959,-4.1982,-4.1984,-4.2019,-4.1949,-4.1987,-4.2013,-4.195,-4.2003,-4.1997,-4.2001,-4.2069,-4.2098,-4.2068,-4.2215,-4.2162,-4.2172,-4.2175,-4.2215,-4.2233,-4.2249,-4.2035,-4.2034,-4.2033,0,0,-4.2058,-4.2058,-4.2111,-4.2115,-4.2119,-4.2103,-4.2116,-4.2111,-4.2105,-4.2157,-4.2111,-4.2141,-4.2186,-4.2192,-4.2201,-4.2323,-4.2287,-4.2331,-4.2407,-4.2449,-4.2464,-4.2478,-4.2523,-4.254,-4.234,-4.2341,-4.2341,0,-4.2126,-4.2176,-4.2142,-4.2185,-4.2197,-4.2143,-4.2197,-4.2202,-4.2214,-4.2224,-4.2189,-4.2247,-4.2246,-4.2315,-4.2345,-4.2354,-4.2368,-4.2332,-4.2465,-4.2478,-4.249,-4.2533,-4.255,-4.2346,-4.2346,-4.2345,-4.2344,0,-4.2259,-4.2295,-4.2337,-4.2352,-4.2368,-4.2417,-4.2391,-4.2412,-4.2387,-4.2375,-4.243,-4.2427,-4.2449,-4.2463,-4.2439,-4.253,-4.2511,-4.2472,-4.2411,-4.2515,-4.2554,-4.257,-4.2354,-4.2352,-4.2351,-4.2349,0,0,-4.2429,-4.2425,-4.2442,-4.2448,-4.245,-4.2477,-4.2523,-4.2546,-4.2566,-4.2576,-4.2614,-4.2655,-4.2619,-4.2629,-4.2605,-4.2642,-4.2742,-4.2598,-4.2597,-4.2626,-4.2844,-4.2875,-4.2895,-4.2717,-4.272,-4.2723,-4.2844,0,-4.2545,-4.2624,-4.2597,-4.2678,-4.2711,-4.2661,-4.2701,-4.2707,-4.2697,-4.2724,-4.2712,-4.2743,-4.2692,-4.2698,-4.2733,-4.2722,-4.2785,-4.2713,-4.2754,-4.2756,-4.2756,-4.2915,-4.2947,-4.3062,-4.2859,-4.2862,-4.2864,0,-4.2691,-4.2709,-4.2794,-4.2792,-4.2805,-4.2842,-4.2861,-4.2888,-4.2894,-4.2884,-4.2897,-4.2865,-4.2911,-4.285,-4.2913,-4.2865,-4.288,-4.2877,-4.2881,-4.2885,-4.2817,-4.2925,-4.3098,-4.3116,-4.2888,-4.2886,-4.2884,0,-4.2809,-4.2853,-4.2911,-4.2918,-4.2916,-4.2944,-4.2944,-4.2947,-4.2963,-4.298,-4.2991,-4.3013,-4.3025,-4.3043,-4.3019,-4.2976,-4.3087,-4.3023,-4.3081,-4.3082,-4.3107,-4.3106,-4.3287,-4.3115,-4.3114,-4.3114,-4.3114,0,-4.2942,-4.2996,-4.2964,-4.2999,-4.3059,-4.3027,-4.3087,-4.3082,-4.3085,-4.3119,-4.3076,-4.3109,-4.3074,-4.3104,-4.3084,-4.3141,-4.3146,-4.3141,-4.3135,-4.3146,-4.3147,-4.3156,-4.3148,-4.3119,-4.3118,-4.3117,-4.3116,0,-4.3084,-4.3064,-4.3123,-4.3118,-4.3118,-4.3163,-4.3158,-4.3191,-4.3178,-4.3222,-4.323,-4.3211,-4.3243,-4.3221,-4.3253,-4.324,-4.3316,-4.3298,-4.3314,-4.331,-4.337,-4.3365,-4.3565,-4.359,-4.34,-4.3402,-4.3403,0,-4.3171,-4.3212,-4.3212,-4.3232,-4.3236,-4.3268,-4.3285,-4.3255,-4.3274,-4.3285,-4.3317,-4.3347,-4.3369,-4.3424,-4.3413,-4.3438,-4.3422,-4.349,-4.3425,-4.3435,-4.3425,-4.3424,-4.3428,-4.3503,-4.3506,-4.3507,-4.3509,0,-4.3328,-4.3317,-4.3343,-4.3367,-4.3389,-4.3405,-4.3418,-4.3437,-4.3407,-4.3431,-4.3465,-4.3482,-4.3517,-4.3547,-4.3568,-4.3569,-4.3535,-4.3529,-4.3544,-4.3556,-4.3564,-4.3563,-4.3352,-4.3525,-4.3523,-4.3522,-4.3521,-4.3521,-4.3446,-4.3481,-4.3487,-4.3518,-4.3526,-4.354,-4.3571,-4.3563,-4.3591,-4.3617,-4.3597,-4.3638,-4.3645,-4.367,-4.3675,-4.3707,-4.3679,-4.3701,-4.3706,-4.3713,-4.3722,-4.3558,-4.3711,-4.371,-4.371,-4.3709,-4.3709,0,-4.3603,-4.3605,-4.3634,-4.3655,-4.368,-4.3646,-4.3659,-4.3683,-4.3719,-4.3728,-4.3752,-4.3792,-4.3821,-4.3813,-4.384,-4.3867,-4.3853,-4.3876,-4.3874,-4.3875,-4.3744,-4.3729,-4.3887,-4.3887,-4.3887,-4.3887,-4.3887,-4.3887,-4.3688,-4.3746,-4.3736,-4.3798,-4.3798,-4.3839,-4.385,-4.3863,-4.387,-4.3917,-4.3942,-4.3937,-4.394,-4.3967,-4.3993,-4.399,-4.4003,-4.4032,-4.4023,-4.3902,-4.3884,-4.3867,-4.3853,-4.4035,-4.4035,-4.4152,-4.4153,-4.4154]},{"header":{"parameterUnit":"m.s-1","parameterCategory":1,"la1":30.2991,"la2":30.254,"lo1":-89.0895,"lo2":-89.0444,"dy":0.0017,"dx":0.0017,"nx":28,"ny":28,"refTime":"2025-08-31T09:00:00:Z","depth":0,"parameterNumber":3,"parameterNumberName":"V-component_of_WINDS"},"data":[0,0,0,0,0,0,0,0,0,0,0,0,0,0,0,0,0,0,0,0,0,0,0,0,0,0,0,0,0,0,0,0,0,0,0,0,0,0,0,0,0,0,0,0,0,0,0,0,0,0,0,0,0,0,0,0,0,0,-0.7451,-0.7451,0,-0.7485,-0.7486,-0.7486,-0.7465,-0.7464,-0.7463,-0.7462,-0.75,-0.7501,-0.7503,0,0,0,0,0,0,0,0,0,0,0,0,0,-0.7369,-0.7371,-0.7451,-0.7451,-0.7452,-0.7485,-0.7486,-0.7486,-0.7465,-0.7464,-0.7462,-0.7461,-0.7499,-0.7501,-0.7504,0,0,0,0,0,0,0,0,0,0,0,0,0,-0.7404,-0.7371,-0.7451,-0.7445,-0.7445,-0.7485,-0.7486,-0.7486,-0.7465,-0.7464,-0.7462,-0.7461,-0.7498,-0.7501,-0.7504,-0.7552,0,0,-0.7513,-0.7514,0,0,0,0,0,0,0,0,-0.7402,-0.7407,-0.7445,-0.7446,-0.7445,-0.7469,-0.7471,-0.7508,-0.7465,-0.7457,-0.7462,-0.746,-0.7491,-0.7494,-0.7504,-0.7554,-0.7556,-0.7513,-0.7515,-0.7516,-0.7517,0,0,0,0,0,0,0,-0.74,-0.7406,-0.7465,-0.7446,-0.7446,-0.7441,-0.7445,-0.7478,-0.7482,-0.7458,-0.7457,-0.7461,-0.749,-0.7501,-0.7505,-0.7556,-0.7513,-0.7516,-0.7517,-0.7519,-0.7649,-0.7651,0,0,0,0,0,0,-0.7398,-0.7404,-0.7463,-0.7466,-0.742,-0.7444,-0.7448,-0.7463,-0.7482,-0.7483,-0.7462,-0.746,-0.7497,-0.7501,-0.7506,-0.7566,-0.7516,-0.7519,-0.752,-0.7647,-0.7649,-0.7651,0,0,0,0,0,0,-0.7396,-0.7403,-0.7462,-0.7434,-0.7441,-0.7447,-0.7464,-0.7464,-0.7475,-0.7485,-0.7486,-0.7472,-0.7496,-0.7502,-0.7541,-0.7567,-0.752,-0.7523,-0.7645,-0.7648,-0.765,-0.7684,0,0,0,0,0,0,-0.7394,-0.7403,-0.7421,-0.7435,-0.7443,-0.7496,-0.7466,-0.7466,-0.748,-0.7477,-0.7495,-0.7496,-0.7495,-0.7537,-0.7544,-0.757,-0.7525,-0.7643,-0.7646,-0.7649,-0.7681,-0.7688,-0.7693,0,0,0,0,0,-0.7391,-0.7429,-0.7422,-0.7429,-0.7466,-0.7498,-0.7502,-0.75,-0.7482,-0.7501,-0.7507,-0.7496,-0.7562,-0.7541,-0.7549,-0.7576,-0.7642,-0.7645,-0.7649,-0.7678,-0.7686,-0.7693,0,0,0,0,0,0,-0.7419,-0.7431,-0.7423,-0.7467,-0.7481,-0.7494,-0.7518,-0.7508,-0.7529,-0.7526,-0.7522,-0.7526,-0.7568,-0.7575,-0.7552,-0.7624,-0.7599,-0.7605,-0.7618,-0.7626,-0.7632,-0.7631,-0.7528,0,0,0,0,0,-0.743,-0.7455,-0.7464,-0.7502,-0.7509,-0.7512,-0.7526,-0.7522,-0.7538,-0.7544,-0.7553,-0.7569,-0.7593,-0.761,-0.7632,-0.7681,-0.7685,-0.7703,-0.7709,-0.7714,-0.772,-0.7748,-0.7757,-0.7664,-0.7664,-0.7664,0,0,-0.7454,-0.7464,-0.748,-0.7508,-0.7519,-0.7545,-0.7518,-0.7546,-0.7566,-0.7549,-0.7587,-0.7593,-0.7611,-0.7655,-0.7675,-0.7663,-0.7746,-0.7719,-0.7723,-0.7727,-0.7753,-0.7762,-0.777,-0.7666,-0.7666,-0.7666,0,0,-0.7512,-0.752,-0.7554,-0.7565,-0.7581,-0.7582,-0.759,-0.7604,-0.7608,-0.7645,-0.7633,-0.7656,-0.7698,-0.7712,-0.7724,-0.7785,-0.7776,-0.7792,-0.7826,-0.7853,-0.7861,-0.7867,-0.7891,-0.79,-0.7797,-0.7798,-0.7798,0,-0.754,-0.7579,-0.7572,-0.7602,-0.7616,-0.7599,-0.7634,-0.7645,-0.7668,-0.7678,-0.7663,-0.7716,-0.7726,-0.7774,-0.7789,-0.7798,-0.7809,-0.7792,-0.786,-0.7866,-0.7872,-0.7895,-0.7904,-0.78,-0.7799,-0.7799,-0.7799,0,-0.7614,-0.764,-0.7665,-0.7687,-0.7703,-0.7735,-0.7735,-0.7751,-0.7746,-0.7749,-0.7788,-0.7799,-0.7825,-0.7835,-0.783,-0.7883,-0.7875,-0.786,-0.7835,-0.7883,-0.7905,-0.7914,-0.7803,-0.7802,-0.7801,-0.7801,0,0,-0.7693,-0.771,-0.772,-0.773,-0.7746,-0.7767,-0.7798,-0.7822,-0.7837,-0.7853,-0.788,-0.7915,-0.7901,-0.7915,-0.7912,-0.7935,-0.7985,-0.7917,-0.7917,-0.7932,-0.8046,-0.8059,-0.8069,-0.7977,-0.7979,-0.798,-0.8045,0,-0.7754,-0.7808,-0.7803,-0.7855,-0.788,-0.7864,-0.7891,-0.7904,-0.7908,-0.793,-0.7934,-0.796,-0.7938,-0.7947,-0.7968,-0.7974,-0.8008,-0.7969,-0.8005,-0.8007,-0.8005,-0.808,-0.8095,-0.8155,-0.8053,-0.8055,-0.8056,0,-0.7832,-0.7851,-0.7905,-0.7917,-0.7928,-0.7952,-0.7974,-0.7995,-0.801,-0.801,-0.8025,-0.8017,-0.805,-0.8021,-0.8067,-0.804,-0.8054,-0.8059,-0.8061,-0.8067,-0.8036,-0.8091,-0.8174,-0.8185,-0.8068,-0.8067,-0.8066,0,-0.7888,-0.7926,-0.7964,-0.7972,-0.7987,-0.8005,-0.8012,-0.8025,-0.804,-0.8058,-0.8068,-0.809,-0.8104,-0.8121,-0.812,-0.8099,-0.8167,-0.8138,-0.817,-0.8171,-0.8188,-0.8188,-0.8278,-0.8192,-0.8192,-0.8192,-0.8192,0,-0.7958,-0.7993,-0.7989,-0.8013,-0.8051,-0.8044,-0.8082,-0.8087,-0.8099,-0.8124,-0.811,-0.8134,-0.8129,-0.8153,-0.8152,-0.8191,-0.8196,-0.8199,-0.8199,-0.8202,-0.8202,-0.8214,-0.8211,-0.8194,-0.8194,-0.8193,-0.8193,0,-0.8029,-0.8027,-0.8068,-0.8077,-0.8081,-0.8109,-0.8118,-0.8141,-0.8141,-0.8173,-0.818,-0.8183,-0.821,-0.821,-0.8241,-0.824,-0.8289,-0.8282,-0.8284,-0.8284,-0.8317,-0.8315,-0.8421,-0.8435,-0.8337,-0.8338,-0.8338,0,-0.8076,-0.8102,-0.8114,-0.8129,-0.8137,-0.8162,-0.8177,-0.8171,-0.8187,-0.8205,-0.8226,-0.8252,-0.8272,-0.8317,-0.8322,-0.8346,-0.8342,-0.8377,-0.8346,-0.8349,-0.8346,-0.8346,-0.835,-0.8385,-0.8386,-0.8387,-0.8387,0,-0.8159,-0.8157,-0.8178,-0.82,-0.8218,-0.8234,-0.8249,-0.8263,-0.8258,-0.8277,-0.8304,-0.832,-0.8352,-0.8378,-0.8401,-0.8409,-0.8399,-0.8396,-0.8406,-0.8411,-0.8412,-0.8415,-0.8304,-0.8395,-0.8394,-0.8394,-0.8393,-0.8393,-0.8221,-0.8244,-0.8257,-0.8281,-0.8292,-0.8306,-0.8328,-0.8331,-0.8354,-0.8379,-0.8373,-0.8405,-0.8418,-0.8448,-0.8457,-0.8483,-0.847,-0.8483,-0.8487,-0.8491,-0.8496,-0.8405,-0.8486,-0.8486,-0.8486,-0.8486,-0.8485,0,-0.8307,-0.8314,-0.8336,-0.8357,-0.8377,-0.8362,-0.8378,-0.8396,-0.8424,-0.8437,-0.8457,-0.8489,-0.8514,-0.852,-0.8545,-0.8564,-0.856,-0.8571,-0.8571,-0.8574,-0.8504,-0.8495,-0.8574,-0.8574,-0.8574,-0.8574,-0.8574,-0.8574,-0.8354,-0.8393,-0.8392,-0.8436,-0.8442,-0.8472,-0.8483,-0.8496,-0.8507,-0.8543,-0.8564,-0.8567,-0.8578,-0.8603,-0.8626,-0.8627,-0.8638,-0.8652,-0.8652,-0.8587,-0.8579,-0.857,-0.8562,-0.8653,-0.8654,-0.8719,-0.872,-0.872]}]]